1497168000.0,4853,18.0,74324.5,19.69,-13.23,-21.93,0,*7A
1497168001.25,4854,18.0,74322.5,19.63,-11.89,-20.59,0,*72
1497168002.5,4855,18.0,74326.0,19.63,-10.53,-19.57,0,*71
1497168003.74,4856,18.0,74322.8,19.59,-10.01,-19.27,0,*7B
1497168004.96,4857,18.0,74324.5,19.55,-8.63,-17.87,0,*4F
1497168006.18,4858,18.0,74326.0,19.55,-6.89,-15.75,0,*45
1497168007.4,4859,18.0,74324.3,19.53,-6.89,-15.57,0,*42
1497168008.62,4860,18.0,74328.8,19.53,-7.15,-15.81,0,*47
1497168009.86,4861,18.0,74324.5,19.47,-6.39,-14.55,0,*44
1497168011.11,4862,18.0,74324.3,19.45,-5.69,-13.33,0,*44
1497168012.35,4863,18.0,74326.5,19.45,-5.65,-13.01,0,*48
1497168013.54,4864,18.0,74326.0,19.45,-6.55,-13.93,0,*44
1497168014.76,4865,18.0,74322.5,19.45,-7.65,-15.07,0,*4C
1497168015.96,4866,18.0,74324.0,19.41,-8.67,-15.95,0,*4D
1497168017.18,4867,18.0,74324.3,19.37,-9.11,-16.55,0,*42
1497168018.41,4868,18.0,74326.5,19.33,-9.31,-16.69,0,*44
1497168019.61,4869,18.0,74326.8,19.27,-9.89,-17.45,0,*4C
1497168020.8,4870,18.0,74326.5,19.23,-10.53,-18.49,0,*7C
1497168022.05,4871,18.0,74326.0,19.19,-12.35,-20.83,0,*7B
1497168023.24,4872,18.0,74324.0,19.15,-12.29,-21.09,0,*7A
1497168024.49,4873,18.0,74324.3,19.07,-12.65,-21.53,0,*7F
1497168025.76,4874,18.0,74326.0,19.01,-12.11,-21.33,0,*7B
1497168027.02,4875,18.0,74326.5,19.01,-11.67,-20.69,0,*76
1497168028.29,4876,18.0,74326.8,18.99,-11.97,-21.33,0,*74
1497168029.52,4877,18.0,74322.5,18.95,-13.69,-23.43,0,*7F
1497168030.76,4878,18.0,74326.0,18.91,-14.33,-24.11,0,*7C
1497168031.98,4879,18.0,74326.5,18.89,-13.79,-23.59,0,*76
1497168033.23,4880,18.0,74324.5,18.87,-14.69,-24.83,0,*78
1497168034.43,4881,18.0,74326.5,18.85,-14.61,-24.61,0,*7F
1497168035.71,4882,18.0,74322.3,18.79,-15.39,-25.75,0,*77
1497168036.92,4883,18.0,74324.5,18.77,-14.15,-24.47,0,*77
1497168038.2,4884,18.0,74324.0,18.75,-13.97,-24.41,0,*79
1497168039.43,4885,18.0,74324.8,18.71,-13.47,-24.31,0,*76
1497168040.67,4886,18.0,74324.8,18.71,-13.15,-24.11,0,*70
1497168041.89,4887,18.0,74324.5,18.67,-13.97,-24.97,0,*72
1497168043.16,4888,18.0,74328.0,18.65,-12.61,-23.53,0,*78
1497168044.38,4889,18.0,74326.0,18.63,-12.29,-23.29,0,*7E
1497168045.58,4890,18.0,74324.8,18.63,-11.41,-22.03,0,*72
1497168046.8,4891,18.0,74324.3,18.63,-12.11,-22.63,0,*73
1497168048.0,4892,18.0,74324.8,18.59,-12.21,-22.67,0,*7E
1497168049.23,4893,18.0,74322.5,18.57,-12.21,-22.53,0,*76
1497168050.45,4894,18.0,74326.0,18.55,-13.43,-24.11,0,*76
1497168051.72,4895,18.0,74326.0,18.53,-13.97,-24.83,0,*73
1497168052.97,4896,18.0,74324.5,18.49,-15.81,-26.61,0,*74
1497168054.19,4897,18.0,74324.0,18.43,-16.83,-27.61,0,*7F
1497168055.42,4898,18.0,74326.8,18.41,-16.97,-27.71,0,*76
1497168056.64,4899,18.0,74324.8,18.33,-16.69,-27.51,0,*71
1497168057.86,4900,18.0,74326.5,18.27,-17.31,-28.15,0,*76
1497168059.06,4901,18.0,74326.0,18.25,-17.31,-28.37,0,*75
1497168060.29,4902,18.0,74322.0,18.21,-17.17,-27.71,0,*7B
1497168061.52,4903,18.0,74326.3,18.17,-17.63,-28.31,0,*77
1497168062.77,4904,18.0,74324.5,18.11,-19.03,-29.73,0,*79
1497168064.01,4905,18.0,74324.3,18.05,-18.55,-29.13,0,*79
1497168065.23,4906,18.0,74320.5,18.01,-17.31,-27.55,0,*7F
1497168066.47,4907,18.0,74324.3,17.99,-19.41,-30.01,0,*7E
1497168067.68,4908,18.0,74324.3,17.91,-20.29,-30.55,0,*7C
1497168068.91,4909,18.0,74326.3,17.87,-20.69,-31.23,0,*7E
1497168070.1,4910,18.0,74326.5,17.83,-20.69,-31.01,0,*72
1497168071.33,4911,18.0,74326.5,17.75,-20.99,-31.17,0,*72
1497168072.6,4912,18.0,74324.3,17.73,-20.43,-30.61,0,*70
1497168073.79,4913,18.0,74330.8,17.65,-20.73,-31.01,0,*72
1497168075.02,4914,18.0,74324.5,17.61,-21.53,-31.67,0,*72
1497168076.25,4915,18.0,74324.3,17.53,-21.53,-31.67,0,*72
1497168077.45,4916,18.0,74328.3,17.49,-21.13,-31.05,0,*7A
1497168078.68,4917,18.0,74330.3,17.43,-20.93,-30.83,0,*77
1497168079.96,4918,18.0,74328.5,17.39,-20.83,-30.73,0,*7B
1497168081.21,4919,18.0,74324.0,17.35,-20.53,-30.23,0,*7E
1497168082.46,4920,18.0,74328.3,17.31,-19.71,-29.13,0,*71
1497168083.71,4921,18.0,74328.3,17.27,-19.31,-28.69,0,*7F
1497168084.94,4922,18.0,74322.5,17.27,-19.17,-28.31,0,*75
1497168086.15,4923,18.0,74328.8,17.21,-18.83,-27.67,0,*72
1497168087.37,4924,18.0,74330.0,17.21,-17.93,-26.49,0,*76
1497168088.62,4925,18.0,74326.3,17.21,-17.25,-25.97,0,*7A
1497168089.87,4926,18.0,74326.5,17.21,-17.93,-26.33,0,*79
1497168091.1,4927,18.0,74326.5,17.19,-17.69,-26.03,0,*75
1497168092.35,4928,18.0,74326.5,17.19,-17.11,-25.39,0,*7F
1497168093.57,4929,18.0,74330.5,17.19,-16.79,-24.77,0,*7A
1497168094.81,4930,18.0,74330.0,17.17,-16.23,-24.11,0,*73
1497168096.05,4931,18.0,74326.8,17.19,-15.21,-22.97,0,*75
1497168097.28,4932,18.0,74326.8,17.27,-14.23,-21.77,0,*75
1497168098.54,4933,18.0,74326.0,17.29,-13.79,-21.27,0,*77
1497168099.8,4934,18.0,74328.8,17.33,-14.01,-21.23,0,*77
1497168100.99,4935,18.0,74328.8,17.33,-13.11,-20.09,0,*79
1497168102.22,4936,18.0,74326.0,17.39,-12.21,-19.13,0,*73
1497168103.49,4937,18.0,74326.3,17.43,-11.73,-18.55,0,*78
1497168104.76,4938,18.0,74324.3,17.51,-10.75,-17.41,0,*79
1497168105.98,4939,18.0,74330.0,17.57,-10.79,-17.31,0,*75
1497168107.24,4940,18.0,74328.3,17.63,-10.97,-17.45,0,*7F
1497168108.45,4941,18.0,74330.0,17.69,-10.89,-17.25,0,*7D
1497168109.71,4942,18.0,74326.0,17.77,-11.37,-17.87,0,*7D
1497168110.96,4943,18.0,74328.3,17.81,-11.11,-17.59,0,*72
1497168112.16,4944,18.0,74330.5,17.87,-11.11,-17.73,0,*7B
1497168113.41,4945,18.0,74324.0,17.91,-12.61,-19.57,0,*71
1497168114.65,4946,18.0,74326.8,17.97,-12.79,-19.75,0,*7D
1497168115.89,4947,18.0,74330.0,17.99,-11.89,-18.59,0,*71
1497168117.11,4948,18.0,74330.0,18.03,-11.63,-18.69,0,*75
1497168118.37,4949,18.0,74324.3,18.07,-12.65,-20.25,0,*76
1497168119.62,4950,18.0,74328.3,18.07,-13.07,-21.27,0,*78
1497168120.83,4951,18.0,74324.3,18.09,-12.25,-21.09,0,*7A
1497168122.09,4952,18.0,74328.3,18.11,-11.33,-20.89,0,*7D
1497168123.31,4953,18.0,74324.8,18.11,-8.75,-18.17,0,*4A
1497168124.53,4954,18.0,74326.5,18.11,-7.23,-15.63,0,*4F
1497168125.78,4955,18.0,74326.5,18.17,-5.77,-12.79,0,*47
1497168127.0,4956,18.0,74326.5,18.21,-5.19,-12.25,0,*40
1497168128.26,4957,18.0,74326.5,18.23,-4.85,-11.63,0,*46
1497168129.48,4958,18.0,74324.0,18.29,-4.33,-10.79,0,*44
1497168130.67,4959,18.0,74326.3,18.33,-4.99,-11.19,0,*49
1497168131.88,4960,18.0,74328.0,18.37,-5.43,-11.01,0,*48
1497168133.12,4961,18.0,74324.5,18.37,-6.23,-11.11,0,*4D
1497168134.37,4962,18.0,74330.3,18.41,-6.43,-11.51,0,*4D
1497168135.61,4963,18.0,74326.5,18.41,-5.81,-11.11,0,*45
1497168136.86,4964,18.0,74326.0,18.43,-4.73,-10.41,0,*48
1497168138.09,4965,18.0,74330.0,18.47,-4.93,-10.75,0,*44
1497168139.32,4966,18.0,74328.8,18.49,-5.11,-11.23,0,*40
1497168140.57,4967,18.0,74324.0,18.49,-5.35,-11.55,0,*46
1497168141.78,4968,18.0,74330.0,18.51,-4.89,-11.19,0,*4E
1497168142.99,4969,18.0,74326.8,18.51,-4.53,-11.07,0,*47
1497168144.23,4970,18.0,74328.8,18.51,-4.73,-11.37,0,*4E
1497168145.46,4971,18.0,74324.5,18.51,-4.77,-11.59,0,*43
1497168146.7,4972,18.0,74326.3,18.53,-5.23,-12.25,0,*4A
1497168147.96,4973,18.0,74326.5,18.53,-5.69,-12.83,0,*49
1497168149.2,4974,18.0,74330.3,18.51,-4.89,-12.07,0,*4F
1497168150.46,4975,18.0,74330.0,18.49,-4.69,-12.07,0,*49
1497168151.72,4976,18.0,74324.8,18.49,-4.81,-11.97,0,*46
1497168152.99,4977,18.0,74324.5,18.49,-4.81,-12.07,0,*4D
1497168154.25,4978,18.0,74324.3,18.45,-4.81,-12.11,0,*49
1497168155.48,4979,18.0,74324.5,18.45,-4.61,-11.85,0,*48
1497168156.72,4980,18.0,74330.5,18.45,-4.61,-11.89,0,*42
1497168157.94,4981,18.0,74326.5,18.43,-4.53,-11.93,0,*4F
1497168159.13,4982,18.0,74328.0,18.43,-4.05,-11.45,0,*44
1497168160.37,4983,18.0,74324.0,18.41,-3.95,-11.33,0,*48
1497168161.61,4984,18.0,74324.5,18.41,-4.37,-11.73,0,*44
1497168162.84,4985,18.0,74326.5,18.41,-3.95,-11.11,0,*4E
1497168164.07,4986,18.0,74330.3,18.37,-3.91,-10.97,0,*47
1497168165.32,4987,18.0,74328.8,18.37,-3.55,-10.27,0,*45
1497168166.56,4988,18.0,74326.5,18.37,-3.51,-9.71,0,*75
1497168167.83,4989,18.0,74326.3,18.37,-3.63,-9.37,0,*77
1497168169.05,4990,18.0,74326.3,18.37,-3.75,-9.19,0,*74
1497168170.29,4991,18.0,74328.3,18.37,-5.19,-10.57,0,*4B
1497168171.56,4992,18.0,74326.0,18.35,-5.89,-10.75,0,*43
1497168172.76,4993,18.0,74328.0,18.33,-6.09,-10.93,0,*47
1497168173.97,4994,18.0,74326.5,18.33,-5.27,-10.23,0,*44
1497168175.22,4995,18.0,74328.3,18.33,-5.03,-10.63,0,*47
1497168176.46,4996,18.0,74328.0,18.33,-5.15,-11.37,0,*43
1497168177.67,4997,18.0,74326.8,18.33,-4.99,-11.73,0,*47
1497168178.89,4998,18.06,74330.3,18.33,-4.49,-11.63,0,*44
1497168180.09,4999,18.0,74328.0,18.33,-3.35,-10.53,0,*4B
1497168181.33,5000,18.0,74328.0,18.33,-2.63,-9.41,0,*7A
1497168182.54,5001,18.0,74324.5,18.33,-2.35,-8.51,0,*78
1497168183.74,5002,18.0,74324.5,18.33,-2.71,-8.33,0,*7F
1497168184.95,5003,18.0,74326.3,18.31,-2.87,-8.37,0,*71
1497168186.22,5004,18.0,74330.5,18.31,-2.63,-7.91,0,*7F
1497168187.43,5005,18.06,74328.0,18.31,-2.23,-7.11,0,*72
1497168188.66,5006,18.0,74328.5,18.31,-2.59,-7.23,0,*7D
1497168189.9,5007,18.06,74328.8,18.31,-2.63,-7.15,0,*70
1497168191.14,5008,18.0,74326.8,18.27,-3.27,-7.99,0,*7D
1497168192.35,5009,18.0,74326.3,18.29,-3.15,-7.69,0,*7C
1497168193.59,5010,18.06,74330.5,18.29,-2.55,-7.43,0,*79
1497168194.81,5011,18.0,74328.8,18.27,-2.87,-8.21,0,*72
1497168196.07,5012,18.0,74330.3,18.27,-2.63,-8.11,0,*78
1497168197.29,5013,18.0,74328.3,18.25,-2.39,-8.11,0,*74
1497168198.5,5014,18.0,74326.3,18.25,-2.55,-8.71,0,*7F
1497168199.73,5015,18.0,74324.8,18.23,-2.83,-9.11,0,*74
1497168200.97,5016,18.0,74328.0,18.23,-2.71,-9.01,0,*7B
1497168202.22,5017,18.0,74330.5,18.19,-2.87,-9.45,0,*7A
1497168203.48,5018,18.0,74330.0,18.19,-2.75,-9.61,0,*7E
1497168204.69,5019,18.0,74328.3,18.17,-3.27,-10.19,0,*40
1497168205.92,5020,18.0,74324.3,18.17,-2.63,-9.93,0,*71
1497168207.14,5021,18.0,74328.5,18.13,-2.59,-10.19,0,*47
1497168208.33,5022,18.0,74328.8,18.09,-2.39,-10.09,0,*48
1497168209.55,5023,18.0,74328.5,18.11,-2.19,-10.05,0,*4E
1497168210.78,5024,18.0,74328.5,18.09,-2.87,-11.07,0,*44
1497168212.03,5025,18.0,74328.0,18.07,-3.79,-12.57,0,*4D
1497168213.24,5026,18.0,74328.8,18.05,-3.83,-12.93,0,*41
1497168214.48,5027,18.06,74328.5,18.01,-3.11,-12.35,0,*43
1497168215.7,5028,18.0,74328.3,17.97,-4.33,-14.11,0,*4B
1497168216.9,5029,18.0,74330.5,17.95,-4.21,-14.15,0,*4F
1497168218.11,5030,18.0,74328.0,17.91,-4.89,-15.15,0,*40
1497168219.36,5031,18.06,74328.0,17.85,-4.17,-14.55,0,*46
1497168220.6,5032,18.0,74326.5,17.85,-3.67,-14.65,0,*46
1497168221.83,5033,18.0,74326.0,17.79,-3.39,-14.51,0,*48
1497168223.02,5034,18.0,74326.8,17.79,-3.03,-14.19,0,*4A
1497168224.28,5035,18.0,74328.8,17.77,-3.27,-14.79,0,*45
1497168225.5,5036,18.0,74324.8,17.75,-3.71,-15.63,0,*4D
1497168226.73,5037,18.06,74332.0,17.73,-4.73,-16.93,0,*43
1497168227.99,5038,18.0,74328.8,17.67,-4.89,-17.25,0,*40
1497168229.25,5039,18.0,74328.5,17.67,-5.11,-17.45,0,*47
1497168230.5,5040,18.06,74332.0,17.63,-4.25,-16.65,0,*48
1497168231.71,5041,18.06,74328.0,17.59,-4.45,-16.89,0,*44
1497168232.91,5042,18.0,74326.5,17.57,-4.25,-16.55,0,*4E
1497168234.1,5043,18.06,74330.3,17.57,-4.29,-16.89,0,*42
1497168235.32,5044,18.0,74328.0,17.53,-4.49,-17.07,0,*40
1497168236.56,5045,18.0,74330.5,17.53,-4.73,-17.41,0,*4A
1497168237.78,5046,18.0,74330.3,17.53,-4.65,-17.41,0,*4E
1497168239.02,5047,18.06,74330.5,17.51,-5.11,-18.17,0,*43
1497168240.22,5048,18.0,74330.3,17.49,-5.43,-18.59,0,*48
1497168241.44,5049,18.0,74330.8,17.43,-6.01,-19.37,0,*4F
1497168242.66,5050,18.0,74330.8,17.43,-6.47,-20.09,0,*42
1497168243.93,5051,18.0,74328.0,17.39,-7.01,-21.23,0,*44
1497168245.18,5052,18.0,74330.0,17.35,-6.77,-20.79,0,*45
1497168246.46,5053,18.0,74324.8,17.35,-6.93,-21.27,0,*44
1497168247.67,5054,18.0,74328.5,17.31,-7.53,-22.03,0,*4F
1497168248.92,5055,18.0,74330.5,17.29,-8.07,-22.77,0,*4A
1497168250.17,5056,18.0,74330.0,17.27,-8.25,-23.03,0,*45
1497168251.39,5057,18.0,74330.5,17.21,-7.87,-22.17,0,*41
1497168252.61,5058,18.0,74328.3,17.21,-7.77,-22.11,0,*47
1497168253.79,5059,18.0,74328.3,17.17,-8.17,-22.41,0,*4F
1497168255.01,5060,18.0,74328.8,17.17,-8.93,-23.23,0,*4C
1497168256.23,5061,18.0,74328.8,17.13,-9.61,-23.59,0,*48
1497168257.47,5062,18.0,74328.0,17.11,-9.83,-24.05,0,*4B
1497168258.69,5063,18.0,74326.0,17.09,-10.15,-24.25,0,*76
1497168259.92,5064,18.0,74330.5,17.05,-10.09,-24.15,0,*73
1497168261.15,5065,18.06,74330.3,17.01,-9.61,-23.59,0,*4F
1497168262.38,5066,18.0,74330.5,16.99,-9.45,-23.13,0,*44
1497168263.59,5067,18.0,74328.8,16.95,-10.01,-23.53,0,*75
1497168264.78,5068,18.0,74330.5,16.95,-9.75,-23.13,0,*45
1497168266.0,5069,18.0,74328.8,16.95,-9.83,-22.83,0,*45
1497168267.22,5070,18.0,74328.0,16.93,-10.01,-22.63,0,*77
1497168268.41,5071,18.06,74328.8,16.91,-9.93,-22.63,0,*47
1497168269.63,5072,18.0,74324.3,16.87,-10.01,-22.21,0,*76
1497168270.88,5073,18.06,74328.0,16.87,-10.79,-22.47,0,*78
1497168272.11,5074,18.0,74330.3,16.87,-12.25,-23.65,0,*75
1497168273.34,5075,18.0,74330.8,16.83,-12.25,-23.19,0,*7B
1497168274.57,5076,18.0,74330.5,16.83,-12.07,-22.87,0,*7E
1497168275.82,5077,18.0,74330.3,16.83,-12.53,-23.33,0,*70
1497168277.07,5078,18.06,74330.3,16.77,-12.75,-23.79,0,*7E
1497168278.32,5079,18.0,74330.8,16.77,-13.07,-23.99,0,*75
1497168279.55,5080,18.06,74330.5,16.77,-12.93,-23.75,0,*7D
1497168280.77,5081,18.0,74324.5,16.75,-12.97,-23.79,0,*76
1497168282.04,5082,18.0,74328.5,16.81,-12.61,-23.33,0,*79
1497168283.27,5083,18.06,74330.8,16.81,-13.19,-23.79,0,*78
1497168284.51,5084,18.0,74328.8,16.77,-13.65,-24.15,0,*70
1497168285.76,5085,18.06,74328.5,16.77,-14.51,-24.97,0,*7B
1497168287.0,5086,18.0,74328.0,16.75,-15.25,-25.49,0,*7A
1497168288.25,5087,18.0,74330.8,16.73,-15.43,-25.75,0,*72
1497168289.47,5088,18.06,74330.5,16.73,-15.85,-25.91,0,*7D
1497168290.74,5089,18.06,74332.8,16.71,-16.31,-26.33,0,*79
1497168291.97,5090,18.0,74328.3,16.71,-16.79,-26.87,0,*72
1497168293.22,5091,18.0,74326.8,16.67,-17.11,-27.03,0,*76
1497168294.42,5092,18.06,74328.0,16.65,-17.31,-27.13,0,*74
1497168295.64,5093,18.06,74332.0,16.65,-17.45,-27.13,0,*76
1497168296.87,5094,18.0,74330.3,16.61,-17.55,-27.03,0,*75
1497168298.09,5095,18.06,74334.3,16.61,-17.41,-26.87,0,*7C
1497168299.34,5096,18.0,74330.3,16.55,-17.11,-26.49,0,*7F
1497168300.57,5097,18.06,74328.0,16.55,-16.41,-25.49,0,*79
1497168301.83,5098,18.0,74330.8,16.55,-16.75,-25.81,0,*75
1497168303.08,5099,18.06,74328.5,16.55,-17.03,-26.07,0,*79
1497168304.33,5100,18.0,74324.8,16.55,-17.31,-26.29,0,*75
1497168305.58,5101,18.0,74328.3,16.55,-17.21,-25.91,0,*75
1497168306.84,5102,18.06,74328.8,16.51,-16.65,-25.39,0,*71
1497168308.08,5103,18.06,74332.3,16.51,-16.89,-25.39,0,*72
1497168309.33,5104,18.06,74328.5,16.51,-16.51,-24.51,0,*7F
1497168310.56,5105,18.0,74330.5,16.51,-15.63,-23.75,0,*7D
1497168311.81,5106,18.0,74328.8,16.53,-15.43,-23.49,0,*71
1497168313.01,5107,18.06,74330.8,16.53,-15.95,-23.79,0,*78
1497168314.28,5108,18.0,74328.8,16.55,-15.43,-23.19,0,*7C
1497168315.53,5109,18.0,74330.5,16.59,-16.37,-23.95,0,*75
1497168316.79,5110,18.0,74328.3,16.59,-16.79,-24.25,0,*7B
1497168318.04,5111,18.06,74330.3,16.59,-17.41,-24.61,0,*70
1497168319.3,5112,18.06,74330.3,16.55,-17.45,-24.61,0,*7B
1497168320.57,5113,18.06,74332.0,16.55,-17.11,-23.99,0,*7B
1497168321.84,5114,18.0,74328.8,16.55,-17.45,-24.15,0,*7E
1497168323.11,5115,18.06,74332.8,16.59,-17.55,-24.15,0,*72
1497168324.34,5116,18.06,74330.0,16.55,-18.41,-24.97,0,*7D
1497168325.57,5117,18.0,74330.5,16.55,-19.17,-25.65,0,*72
1497168326.85,5118,18.06,74328.5,16.55,-20.49,-26.97,0,*72
1497168328.13,5119,18.06,74328.8,16.51,-20.19,-26.29,0,*77
1497168329.36,5120,18.06,74330.3,16.51,-19.75,-25.65,0,*76
1497168330.62,5121,18.06,74330.0,16.51,-18.83,-24.67,0,*7C
1497168331.84,5122,18.06,74332.3,16.49,-17.79,-23.39,0,*70
1497168333.07,5123,18.06,74328.8,16.53,-16.59,-21.87,0,*7E
1497168334.29,5124,18.06,74328.3,16.55,-16.41,-21.63,0,*7C
1497168335.55,5125,18.0,74328.8,16.59,-16.83,-21.97,0,*74
1497168336.77,5126,18.06,74328.8,16.59,-17.69,-22.83,0,*74
1497168338.0,5127,18.0,74330.3,16.61,-17.41,-22.57,0,*7D
1497168339.22,5128,18.06,74334.0,16.63,-16.79,-21.63,0,*7E
1497168340.5,5129,18.06,74328.5,16.67,-16.23,-20.99,0,*70
1497168341.76,5130,18.06,74330.3,16.67,-15.39,-20.09,0,*79
1497168343.01,5131,18.06,74328.0,16.73,-15.85,-20.49,0,*7E
1497168344.24,5132,18.0,74328.3,16.75,-15.53,-20.09,0,*74
1497168345.49,5133,18.06,74328.5,16.81,-15.35,-19.99,0,*7D
1497168346.74,5134,18.06,74330.3,16.87,-14.75,-19.27,0,*7C
1497168347.97,5135,18.06,74334.0,16.89,-14.11,-18.49,0,*78
1497168349.21,5136,18.06,74330.3,16.93,-13.83,-18.25,0,*76
1497168350.44,5137,18.06,74332.8,17.05,-14.11,-18.45,0,*73
1497168351.66,5138,18.06,74330.8,17.07,-15.07,-19.57,0,*7A
1497168352.91,5139,18.06,74332.3,17.09,-15.35,-19.81,0,*7F
1497168354.11,5140,18.06,74332.0,17.13,-15.49,-19.95,0,*74
1497168355.38,5141,18.06,74330.8,17.15,-15.35,-19.85,0,*79
1497168356.65,5142,18.06,74328.0,17.19,-14.93,-19.65,0,*75
1497168357.93,5143,18.06,74330.8,17.23,-13.97,-18.55,0,*7C
1497168359.16,5144,18.06,74328.8,17.29,-13.33,-17.87,0,*7F
1497168360.43,5145,18.0,74326.5,17.35,-12.83,-17.45,0,*77
1497168361.63,5146,18.0,74326.5,17.37,-13.19,-17.73,0,*71
1497168362.85,5147,18.0,74330.5,17.45,-12.93,-17.63,0,*77
1497168364.1,5148,18.0,74328.8,17.49,-13.33,-18.01,0,*74
1497168365.32,5149,18.0,74328.8,17.51,-13.73,-18.41,0,*7C
1497168366.58,5150,18.0,74328.5,17.55,-14.01,-18.49,0,*7A
1497168367.8,5151,18.06,74330.5,17.59,-14.11,-18.79,0,*75
1497168369.03,5152,18.06,74328.3,17.63,-13.55,-18.07,0,*71
1497168370.27,5153,18.06,74330.5,17.67,-13.47,-18.01,0,*71
1497168371.47,5154,18.06,74332.0,17.69,-14.19,-18.73,0,*71
1497168372.73,5155,18.06,74328.0,17.75,-15.43,-20.19,0,*74
1497168373.96,5156,18.06,74330.8,17.77,-16.59,-21.17,0,*72
1497168375.22,5157,18.06,74328.5,17.77,-15.85,-20.25,0,*71
1497168376.47,5158,18.06,74330.8,17.79,-15.81,-20.19,0,*7B
1497168377.76,5159,18.06,74332.3,17.81,-16.09,-20.49,0,*7B
1497168378.96,5160,18.0,74328.0,17.83,-17.35,-21.93,0,*7B
1497168380.18,5161,18.06,74330.0,17.83,-18.11,-22.47,0,*79
1497168381.43,5162,18.06,74328.5,17.81,-18.01,-22.37,0,*7E
1497168382.7,5163,18.06,74330.8,17.81,-18.59,-22.77,0,*76
1497168383.95,5164,18.0,74328.8,17.81,-16.97,-21.27,0,*7B
1497168385.17,5165,18.06,74328.3,17.83,-16.23,-20.09,0,*7A
1497168386.39,5166,18.06,74330.5,17.85,-15.07,-19.17,0,*7F
1497168387.67,5167,18.06,74328.8,17.85,-15.39,-19.27,0,*70
1497168388.86,5168,18.06,74328.3,17.91,-14.61,-18.79,0,*7C
1497168390.07,5169,18.06,74330.8,17.95,-14.55,-18.83,0,*7B
1497168391.28,5170,18.0,74328.5,17.95,-15.75,-19.95,0,*76
1497168392.51,5171,18.06,74328.3,17.99,-14.19,-18.31,0,*7F
1497168393.73,5172,18.06,74330.8,18.03,-14.33,-18.55,0,*7A
1497168394.95,5173,18.06,74330.3,18.07,-14.29,-18.49,0,*79
1497168396.22,5174,18.06,74328.3,18.11,-14.93,-19.23,0,*75
1497168397.47,5175,18.06,74334.3,18.11,-14.55,-18.73,0,*7A
1497168398.68,5176,18.06,74330.3,18.17,-14.23,-18.41,0,*7F
1497168399.93,5177,18.0,74328.5,18.19,-15.07,-19.27,0,*76
1497168401.18,5178,18.0,74330.3,18.21,-15.39,-19.61,0,*7D
1497168402.43,5179,18.0,74328.5,18.25,-15.89,-20.19,0,*76
1497168403.63,5180,18.06,74332.3,18.25,-14.65,-18.69,0,*7F
1497168404.84,5181,18.06,74332.0,18.27,-15.07,-19.07,0,*70
1497168406.05,5182,18.06,74334.3,18.29,-14.23,-18.17,0,*7A
1497168407.27,5183,18.06,74328.8,18.33,-14.47,-18.49,0,*79
1497168408.52,5184,18.06,74332.5,18.35,-14.83,-18.83,0,*76
1497168409.74,5185,18.06,74328.0,18.37,-14.65,-18.69,0,*79
1497168410.97,5186,18.06,74332.3,18.45,-14.61,-18.59,0,*78
1497168412.21,5187,18.06,74332.5,18.45,-15.43,-19.47,0,*76
1497168413.41,5188,18.06,74330.5,18.47,-14.97,-18.83,0,*7A
1497168414.61,5189,18.06,74328.8,18.51,-14.33,-18.07,0,*7E
1497168415.83,5190,18.06,74328.3,18.53,-14.29,-18.07,0,*7F
1497168417.04,5191,18.06,74330.3,18.55,-15.01,-18.99,0,*74
1497168418.23,5192,18.06,74328.5,18.55,-15.71,-19.47,0,*72
1497168419.42,5193,18.06,74330.3,18.59,-15.11,-18.79,0,*75
1497168420.66,5194,18.06,74334.0,18.65,-14.69,-18.31,0,*7F
1497168421.88,5195,18.06,74328.5,18.67,-15.57,-19.13,0,*71
1497168423.12,5196,18.06,74328.5,18.69,-14.97,-18.55,0,*72
1497168424.37,5197,18.06,74330.8,18.71,-15.07,-18.35,0,*74
1497168425.58,5198,18.06,74330.8,18.73,-15.57,-19.07,0,*7C
1497168426.78,5199,18.06,74332.3,18.73,-15.07,-18.45,0,*7F
1497168428.0,5200,18.06,74330.8,18.77,-15.11,-18.35,0,*78
1497168429.25,5201,18.06,74330.8,18.77,-15.43,-18.89,0,*79
1497168430.47,5202,18.06,74328.0,18.81,-16.23,-19.51,0,*72
1497168431.69,5203,18.06,74330.0,18.81,-15.99,-19.27,0,*70
1497168432.92,5204,18.06,74328.0,18.85,-16.27,-19.51,0,*74
1497168434.2,5205,18.06,74330.3,18.87,-15.43,-18.35,0,*75
1497168435.43,5206,18.0,74328.8,18.89,-15.25,-17.97,0,*7F
1497168436.67,5207,18.06,74328.8,18.91,-14.65,-17.45,0,*7D
1497168437.87,5208,18.06,74328.3,18.93,-15.07,-17.69,0,*7B
1497168439.13,5209,18.06,74328.3,18.95,-14.83,-17.35,0,*78
1497168440.36,5210,18.0,74326.8,18.99,-14.69,-17.17,0,*78
1497168441.63,5211,18.06,74330.0,19.01,-15.21,-17.59,0,*7E
1497168442.86,5212,18.06,74328.0,19.03,-14.89,-17.21,0,*73
1497168444.13,5213,18.06,74330.8,19.09,-13.79,-16.13,0,*70
1497168445.39,5214,18.06,74330.3,19.13,-13.51,-15.81,0,*7E
1497168446.64,5215,18.06,74328.5,19.17,-14.33,-16.65,0,*71
1497168447.83,5216,18.06,74332.3,19.19,-14.37,-16.45,0,*7A
1497168449.06,5217,18.06,74332.5,19.21,-15.01,-17.31,0,*76
1497168450.28,5218,18.06,74330.0,19.23,-16.13,-18.65,0,*75
1497168451.5,5219,18.06,74332.0,19.23,-16.41,-18.93,0,*7A
1497168452.74,5220,18.06,74328.3,19.25,-16.51,-19.03,0,*7F
1497168454.0,5221,18.06,74330.8,19.25,-16.23,-18.89,0,*78
1497168455.22,5222,18.06,74332.5,19.25,-15.75,-18.25,0,*7D
1497168456.45,5223,18.06,74332.3,19.31,-15.01,-17.41,0,*77
1497168457.65,5224,18.06,74330.3,19.33,-14.89,-17.31,0,*74
1497168458.88,5225,18.06,74330.3,19.35,-15.49,-17.83,0,*77
1497168460.08,5226,18.06,74330.3,19.37,-15.67,-17.83,0,*7A
1497168461.3,5227,18.06,74332.5,19.39,-14.65,-16.89,0,*7D
1497168462.55,5228,18.06,74330.3,19.43,-14.29,-16.51,0,*72
1497168463.77,5229,18.06,74328.0,19.45,-16.03,-18.55,0,*75
1497168465.01,5230,18.06,74328.5,19.47,-17.03,-19.47,0,*7C
1497168466.24,5231,18.06,74328.5,19.45,-17.83,-20.35,0,*78
1497168467.48,5232,18.06,74330.5,19.47,-17.31,-19.65,0,*7F
1497168468.69,5233,18.06,74332.5,19.49,-16.37,-18.69,0,*7A
1497168469.91,5234,18.06,74330.8,19.53,-15.43,-17.73,0,*72
1497168471.13,5235,18.06,74330.0,19.53,-15.57,-17.83,0,*79
1497168472.34,5236,18.06,74332.0,19.57,-15.11,-17.17,0,*71
1497168473.61,5237,18.06,74332.5,19.59,-15.85,-18.35,0,*7C
1497168474.81,5238,18.06,74330.8,19.61,-16.89,-19.37,0,*74
1497168476.03,5239,18.06,74332.8,19.61,-15.85,-18.21,0,*7C
1497168477.27,5240,18.06,74332.3,19.63,-16.93,-19.27,0,*73
1497168478.49,5241,18.06,74328.8,19.65,-16.41,-18.83,0,*74
1497168479.75,5242,18.06,74328.0,19.65,-16.17,-18.45,0,*7E
1497168480.98,5243,18.06,74330.5,19.65,-15.75,-18.11,0,*79
1497168482.25,5244,18.06,74330.0,19.69,-15.21,-17.63,0,*79
1497168483.46,5245,18.06,74328.0,19.75,-15.49,-17.93,0,*74
1497168484.66,5246,18.06,74332.0,19.75,-15.29,-17.69,0,*74
1497168485.88,5247,18.0,74330.5,19.79,-14.97,-17.35,0,*74
1497168487.09,5248,18.06,74330.5,19.79,-15.21,-17.49,0,*7C
1497168488.34,5249,18.06,74334.0,19.81,-15.81,-18.21,0,*71
1497168489.56,5250,18.06,74330.3,19.83,-15.39,-17.73,0,*70
1497168490.75,5251,18.06,74332.5,19.83,-16.41,-19.03,0,*74
1497168491.95,5252,18.06,74330.8,19.87,-16.89,-19.47,0,*77
1497168493.17,5253,18.06,74334.8,19.87,-16.83,-19.41,0,*7A
1497168494.37,5254,18.06,74330.0,19.87,-16.55,-19.13,0,*71
1497168495.59,5255,18.06,74332.8,19.87,-16.45,-18.93,0,*78
1497168496.82,5256,18.06,74334.3,19.89,-16.59,-19.13,0,*71
1497168498.04,5257,18.06,74330.8,19.89,-16.55,-19.03,0,*7D
1497168499.29,5258,18.06,74332.0,19.89,-16.83,-19.31,0,*78
1497168500.51,5259,18.06,74330.5,19.93,-16.79,-19.51,0,*71
1497168501.78,5260,18.06,74330.3,19.93,-16.23,-18.89,0,*70
1497168503.01,5261,18.06,74330.3,19.95,-16.09,-18.69,0,*71
1497168504.22,5262,18.06,74334.5,19.95,-15.85,-18.41,0,*7F
1497168505.46,5263,18.06,74332.0,19.99,-16.55,-19.27,0,*7D
1497168506.68,5264,18.06,74334.8,19.99,-16.93,-19.61,0,*72
1497168507.87,5265,18.06,74334.0,20.03,-16.97,-19.71,0,*7F
1497168509.12,5266,18.06,74330.3,20.01,-16.37,-19.23,0,*73